TimeCDT,TemperatureF,Dew PointF,Humidity,Sea Level PressureIn,VisibilityMPH,Wind Direction,Wind SpeedMPH,Gust SpeedMPH,PrecipitationIn,Events,Conditions,WindDirDegrees,DateUTC
12:53 AM,70.0,52.0,53,29.93,10.0,SSE,9.2,-,N/A,,Clear,160,2013-09-15 05:53:00
1:53 AM,69.1,52.0,54,29.92,10.0,SSE,5.8,-,N/A,,Clear,160,2013-09-15 06:53:00
2:53 AM,69.1,52.0,54,29.92,10.0,South,5.8,-,N/A,,Clear,170,2013-09-15 07:53:00
3:53 AM,68.0,52.0,56,29.91,10.0,South,4.6,-,N/A,,Clear,170,2013-09-15 08:53:00
4:53 AM,64.9,53.1,65,29.91,10.0,Calm,Calm,-,N/A,,Clear,0,2013-09-15 09:53:00
5:53 AM,64.9,55.0,70,29.91,10.0,SE,4.6,-,N/A,,Clear,140,2013-09-15 10:53:00
6:53 AM,69.1,57.0,65,29.91,10.0,South,8.1,-,N/A,,Clear,190,2013-09-15 11:53:00
7:53 AM,70.0,57.0,63,29.93,10.0,SSW,3.5,-,N/A,,Clear,200,2013-09-15 12:53:00
8:53 AM,71.1,57.9,63,29.94,10.0,Variable,3.5,-,N/A,,Mostly Cloudy,0,2013-09-15 13:53:00
9:53 AM,73.0,60.1,64,29.98,10.0,WNW,4.6,-,N/A,,Mostly Cloudy,290,2013-09-15 14:53:00
10:53 AM,77.0,61.0,58,29.98,10.0,SSW,4.6,-,N/A,,Partly Cloudy,200,2013-09-15 15:53:00
11:53 AM,80.1,61.0,52,29.98,10.0,Calm,Calm,-,N/A,,Partly Cloudy,0,2013-09-15 16:53:00
12:53 PM,84.0,63.0,49,29.97,10.0,ENE,4.6,-,N/A,,Clear,60,2013-09-15 17:53:00
1:53 PM,86.0,63.0,46,29.96,10.0,WSW,5.8,-,N/A,,Clear,240,2013-09-15 18:53:00
2:53 PM,88.0,64.0,45,29.96,10.0,Variable,4.6,-,N/A,,Mostly Cloudy,0,2013-09-15 19:53:00
3:53 PM,84.0,64.9,53,29.97,10.0,North,15.0,19.6,N/A,,Overcast,10,2013-09-15 20:53:00
4:53 PM,75.0,64.9,71,30.00,10.0,North,19.6,25.3,N/A,,Mostly Cloudy,10,2013-09-15 21:53:00
5:34 PM,73.0,64.0,73,30.04,9.0,NNE,10.4,-,N/A,,Mostly Cloudy,20,2013-09-15 22:34:00
5:53 PM,72.0,63.0,73,30.03,8.0,NNE,15.0,-,N/A,,Scattered Clouds,20,2013-09-15 22:53:00
6:53 PM,72.0,63.0,73,30.05,10.0,North,11.5,-,N/A,,Overcast,10,2013-09-15 23:53:00
7:10 PM,72.0,63.0,73,30.08,10.0,North,9.2,-,N/A,,Overcast,10,2013-09-16 00:10:00
7:53 PM,70.0,62.1,76,30.07,10.0,North,15.0,21.9,N/A,,Overcast,10,2013-09-16 00:53:00
8:53 PM,69.1,61.0,75,30.09,10.0,NNE,12.7,21.9,N/A,,Overcast,20,2013-09-16 01:53:00
9:29 PM,69.1,60.1,73,30.11,10.0,NNE,15.0,-,N/A,Thunderstorm,Overcast,30,2013-09-16 02:29:00
9:51 PM,66.2,60.8,83,30.13,3.0,NNE,10.4,-,0.03,Rain-Thunderstorm,Heavy Thunderstorms and Rain,30,2013-09-16 02:51:00
9:53 PM,66.0,61.0,84,30.12,3.0,NNE,12.7,-,0.05,Rain-Thunderstorm,Heavy Thunderstorms and Rain,30,2013-09-16 02:53:00
10:00 PM,64.9,62.1,90,30.15,2.5,NW,6.9,18.4,0.05,Rain-Thunderstorm,Heavy Thunderstorms and Rain,320,2013-09-16 03:00:00
10:15 PM,64.0,62.1,93,30.16,1.0,NNW,6.9,-,0.21,Rain-Thunderstorm,Heavy Thunderstorms and Rain,340,2013-09-16 03:15:00
10:39 PM,63.0,61.0,93,30.14,2.0,NE,11.5,-,0.70,Rain-Thunderstorm,Heavy Thunderstorms and Rain,40,2013-09-16 03:39:00
10:47 PM,64.4,60.8,88,30.14,3.0,NE,10.4,-,0.73,Rain,Rain,40,2013-09-16 03:47:00
10:53 PM,64.0,61.0,90,30.14,4.0,NNE,9.2,-,0.74,Rain-Thunderstorm,Rain,20,2013-09-16 03:53:00
11:05 PM,64.0,61.0,90,30.16,4.0,NNE,11.5,-,0.03,Rain,Heavy Rain,30,2013-09-16 04:05:00
11:09 PM,64.0,61.0,90,30.16,4.0,NNE,8.1,-,0.04,Rain-Thunderstorm,Rain,30,2013-09-16 04:09:00
11:24 PM,64.0,61.0,90,30.16,6.0,NNE,6.9,-,0.08,Rain-Thunderstorm,Light Rain,30,2013-09-16 04:24:00
11:32 PM,64.0,61.0,90,30.17,6.0,NE,5.8,-,0.09,Rain-Thunderstorm,Thunderstorms and Rain,50,2013-09-16 04:32:00
11:51 PM,64.4,60.8,88,30.17,4.0,NNE,9.2,-,0.12,Rain-Thunderstorm,Heavy Rain,30,2013-09-16 04:51:00
11:53 PM,63.0,61.0,93,30.15,4.0,NNE,9.2,-,0.13,Rain-Thunderstorm,Heavy Rain,30,2013-09-16 04:53:00